Location: Milton Keynes
(52.0316°N, 0.7531°W)
Time: 23:47:09
(UTC+01:00)

N. Korean satellite - Pass Details

Date: 29 January 2019
Orbit: 457 x 508 km, 97.2° (Epoch: 18 April)

Event Time Altitude Azimuth Distance (km) Brightness Sun altitude
Rises 05:50:18 0° 20° (NNE) 2,614 10.5 -18.0°
Reaches altitude 10° 05:52:34 10° 30° (NNE) 1,717 9.6 -17.7°
Maximum altitude 05:55:57 33° 96° (E) 857 8.5 -17.2°
Drops below altitude 10° 05:59:14 10° 162° (SSE) 1,677 9.6 -16.6°
Sets 06:01:25 0° 172° (S) 2,542 10.4 -16.3°
